Location: Continental Mobile Home Park
(37.6303°N, 122.0608°W)
Time: 04:36:13
(UTC+00:00)

Daily predictions for brighter satellites

Satellite Brightness Start Highest point End
(mag) Time Altitude Azimuth Time Altitude Azimuth Time Altitude Azimuth
CZ-4B R/B 3.9 02:58:39 10° S 03:03:36 67° WSW 03:08:27 10° NNW
SPOT 1/Viking Rocket 4.3 03:00:35 10° SE 03:05:12 34° ENE 03:09:51 10° N
H-2A ROCKET BODY 3.9 03:01:14 10° WSW 03:05:35 36° S 03:19:57 10° ESE
Cosmos 1674 Rocket 3.7 03:02:56 10° N 03:07:19 58° E 03:11:41 10° SSE
CZ-4B R/B 3.9 03:06:49 10° SE 03:11:54 36° ENE 03:16:57 10° N
Hubble Space Telescope 2.4 03:10:20 10° SW 03:13:15 20° S 03:16:10 10° SE
[s.n.70599] 3.0 03:11:15 10° WNW 03:13:42 46° SSW 03:16:08 10° SE
Cosmos 2341 Rocket 4.5 03:08:51 10° N 03:14:45 41° ENE 03:20:33 10° SSE
Meteor 2-11 Rocket 4.4 03:13:24 10° N 03:19:32 83° E 03:25:36 10° S
Cosmos 2082 Rocket 3.6 03:14:25 10° NW 03:19:46 42° WSW 03:25:04 10° S
Resurs 1-3 3.7 03:15:59 10° SSE 03:20:14 58° ENE 03:24:31 10° N
Milstar 3 4.5 03:13:17 10° SW 03:21:27 38° SSE 03:35:40 10° E
USA 234 3.6 03:16:10 10° ESE 03:22:30 55° NE 03:28:51 10° NW
NOSS 3-1 (C) 3.5 03:19:34 10° S 03:23:44 33° ESE 03:28:26 10° NE
IKONOS-2 4.5 03:20:53 10° NNE 03:25:04 64° E 03:29:14 10° S
Cosmos 1025 Rocket 3.7 03:23:54 10° NNE 03:27:55 35° ENE 03:31:55 10° SE
Okean O Rocket 2.6 03:26:49 11° SE 03:30:23 28° ENE 03:34:07 10° N
Cosmos 2366 rocket 4.3 03:28:04 10° N 03:34:10 47° ENE 03:40:14 10° SSE
YAOGAN 1 4.4 03:32:14 10° SSW 03:36:07 33° W 03:40:01 10° NNW
Resurs 01 Rocket 2.4 03:32:30 12° SE 03:36:09 33° ENE 03:40:07 10° N
Cosmos 1346 Rocket 2.7 03:32:42 10° S 03:36:28 61° E 03:40:14 10° NNE
CARTOSAT-1 4.4 03:35:11 14° SE 03:38:14 30° ENE 03:41:58 10° N
SJ-6B 2.9 03:34:31 10° S 03:38:25 82° WSW 03:42:24 10° NNW
Cosmos 1975 Rocket 4.1 03:36:39 10° NNE 03:40:15 25° ENE 03:42:18 18° ESE
Cosmos 2218 Rocket 4.2 03:35:24 10° N 03:41:38 52° E 03:47:47 10° SSE
Cosmos 1328 3.8 03:39:54 10° N 03:43:35 50° E 03:46:51 13° SSE
ATLAS 3B R/B 3.3 03:38:59 10° S 03:44:57 33° ESE 03:51:18 10° NE
Cosmos 1302 Rocket 4.0 03:41:17 10° SSW 03:46:33 90° ESE 03:51:50 10° NNE
Iridium 921 4.5 03:44:20 10° N 03:47:49 81° W 03:51:18 10° S
OAO 3 Rocket 3.3 03:43:02 10° W 03:47:51 65° S 03:51:07 21° ESE
Centaur D-1AR AC-36 4.4 03:45:54 10° S 03:49:20 16° SE 03:50:48 16° SE
USA 281 3.7 03:46:26 16° ESE 03:51:13 42° ENE 03:57:19 10° N
Cosmos 1892 2.7 03:47:39 10° NNW 03:51:13 71° W 03:54:44 10° S
USA 186 1.5 03:49:12 15° SSE 03:51:39 74° ENE 03:54:42 10° N
Cosmos 1782 Rocket 3.4 03:47:48 10° S 03:52:08 74° E 03:56:31 10° N
Meteor 1-21 Rocket 4.3 03:50:51 10° N 03:56:47 69° E 04:02:40 10° SSE
DELTA 2 R/B (1) 3.8 03:52:08 10° WNW 03:57:40 60° SSW 04:01:06 23° SE
CZ-4 R/B 2.2 03:55:21 10° S 03:59:12 49° W 04:03:01 10° NNW
Cosmos 1455 2.5 03:57:59 10° SSW 04:01:31 61° W 04:05:03 10° N
ATLAS 5 CENTAUR R/B 0.9 04:01:12 10° SSW 04:04:25 50° ESE 04:07:47 10° NE
SPOT 5 4.3 04:03:53 22° E 04:05:16 24° ENE 04:09:27 10° NNE
Cosmos 968 Rocket 3.8 04:02:22 10° NNW 04:07:26 66° WSW 04:12:19 11° S
Cosmos 864 Rocket 4.5 04:05:29 10° N 04:11:44 88° W 04:18:00 10° S
Cosmos 1953 4.2 04:09:30 10° SW 04:12:53 30° WNW 04:16:17 10° NNW
Feng Yun 1-1 Rocket 4.4 04:10:57 10° S 04:16:22 73° WSW 04:21:59 10° NNW
ERS-1 Rocket 4.5 04:16:11 19° ENE 04:16:23 19° ENE 04:19:47 10° NNE
Meteor 1-11 4.4 04:10:53 10° N 04:16:24 51° ENE 04:18:52 31° SE
Cosmos 1300 Rocket 3.8 04:14:07 10° SSW 04:18:27 70° W 04:22:49 10° N
CSL-04 Debris 4.3 04:15:50 12° S 04:20:51 73° WSW 04:26:19 10° NNW
Okean 2 Rocket 4.3 04:29:19 27° ENE 04:29:19 27° ENE 04:32:03 10° NNE
SJ 16-02 1.5 04:24:52 10° NNW 04:29:10 68° WSW 04:30:56 34° S
MOS 1 4.4 04:28:08 38° SE 04:30:08 56° ENE 04:35:42 10° N
CZ-4C R/B 2.8 04:27:51 10° N 04:31:17 84° WNW 04:31:38 69° SSW
CSL-04 Rocket 4.1 04:26:37 14° S 04:31:19 64° W 04:36:47 10° NNW
OAO 1 Rocket 4.4 04:28:32 10° WSW 04:33:48 64° S 04:34:58 50° ESE
In-Cosmos 22 Rocket 4.0 04:28:29 10° N 04:33:56 88° E 04:36:36 32° S
IRS-1C Rocket 4.3 04:37:49 46° E 04:38:33 49° ENE 04:43:37 10° N
Cosmos 2297 Rocket 4.2 04:38:34 10° NNE 04:40:59 13° NE 04:41:24 13° NE
Cosmos 2098 Rocket 4.0 04:37:30 10° SSW 04:43:01 57° W 04:47:35 10° N
Sich 1 Rocket 4.5 04:45:04 36° NE 04:45:04 36° NE 04:47:59 10° NNE
Okean-O 2.5 04:43:30 63° S 04:44:11 87° WSW 04:48:37 10° NNW
MetOp-B 4.1 04:46:23 56° ESE 04:47:06 61° ENE 04:52:23 10° N
Terra 3.1 04:48:09 27° NE 04:48:09 27° NE 04:51:13 10° N
NOSS 3-1 (A) 2.8 04:45:50 10° SSW 04:50:35 85° ESE 04:56:07 10° NNE
Hubble Space Telescope 3.0 04:50:21 10° SW 04:51:24 15° SW 04:51:24 15° SW
USA 245 4.4 04:59:47 53° ENE 04:59:47 53° ENE 05:04:39 10° N
IRS-1A Rocket 4.2 05:03:42 67° SE 05:04:24 76° ENE 05:10:18 10° N
USA 234 4.1 05:03:03 29° S 05:05:34 39° SW 05:11:38 10° WNW
Ariane Rocket 3.8 05:07:21 38° NE 05:07:21 38° NE 05:11:03 10° N
Okean O Rocket 3.7 05:04:11 14° SW 05:06:38 22° W 05:10:03 10° NW
Resurs 01 Rocket 4.0 05:09:59 12° SW 05:12:38 19° W 05:15:49 10° NW
SPOT 3 Rocket 4.4 05:15:06 39° NE 05:15:06 39° NE 05:18:53 10° N
Cosmos 1486 Rocket 4.1 05:15:33 10° NNW 05:20:11 70° NNW 05:20:11 70° NNW
Iridium 4 Rocket 3.9 05:29:08 64° N 05:29:08 64° N 05:33:54 10° N
ATLAS 3B R/B 3.6 05:28:37 10° SW 05:35:21 50° NW 05:42:37 10° NNE
USA 281 4.4 05:33:18 27° SW 05:35:41 34° WSW 05:41:34 10° NW
Cosmos 1605 Rocket 4.4 05:34:58 10° N 05:40:11 56° NNE 05:40:11 56° NNE
SPOT 5 4.1 05:43:02 40° W 05:43:02 40° W 05:47:59 10° NNW
ATLAS 5 CENTAUR R/B 4.5 05:47:55 10° NW 05:48:43 11° NW 05:49:33 10° NNW
ERS-1 Rocket 4.3 05:56:07 37° WNW 05:56:07 37° WNW 05:59:34 10° NNW
Cosmos 2227 Rocket 4.0 05:51:54 10° N 05:54:46 22° NNE 05:54:46 22° NNE
CZ-4C R/B 3.9 06:15:03 10° NNW 06:21:29 37° NE 06:21:29 37° NE
Terra 4.2 06:26:51 19° WNW 06:26:51 19° WNW 06:28:39 10° NW
Cosmos 2297 Rocket 3.7 06:20:11 10° NNW 06:23:12 33° NNW 06:23:12 33° NNW
COSMOS 2455 4.2 06:23:42 10° NNW 06:27:12 34° N 06:27:12 34° N
Cosmos 2263 Rocket 4.4 06:55:29 10° N 06:57:20 19° N 06:57:20 19° N
CENTAUR R/B 4.1 06:54:55 10° NNW 07:02:34 41° NE 07:02:34 41° NE
CZ-4C R/B 4.4 08:03:07 10° NW 08:06:34 30° NW 08:06:34 30° NW
CENTAUR R/B 4.4 08:45:27 10° NW 08:49:42 32° NW 08:49:42 32° NW
SL-16 R/B 4.4 09:04:26 21° N 09:04:26 21° N 09:06:20 10° N
USA 215 4.4 08:58:22 10° NE 09:02:42 37° N 09:02:42 37° N
CZ-2D R/B 4.1 09:28:28 10° NNE 09:30:50 24° NE 09:30:50 24° NE
USA 267 4.5 09:39:08 32° NNW 09:39:08 32° NNW 09:42:30 10° NW
SL-16 R/B 4.5 09:36:56 19° E 09:39:10 23° ENE 09:43:53 10° NNE
COSMOS 2428 4.2 09:52:37 33° NE 09:52:37 33° NE 09:55:54 10° NNE
CZ-2C R/B 4.0 09:58:45 36° NNE 09:58:45 36° NNE 10:02:24 10° N
Cosmos 2237 Rocket 4.2 09:58:31 21° E 09:58:31 21° E 10:01:59 10° NE
Lacrosse 5 4.0 10:00:41 22° N 10:00:41 22° N 10:03:04 10° NNE
Resurs 1-4 Rocket 3.4 10:08:13 10° NNE 10:11:14 35° N 10:11:14 35° N
Cosmos 2333 Rocket 4.0 10:16:50 23° NNW 10:16:50 23° NNW 10:19:38 10° N
Cosmos 2360 Rocket 4.2 10:20:20 19° NNW 10:20:20 19° NNW 10:22:51 10° N
Nadezhda 4 Rocket 4.1 10:28:34 67° NE 10:28:34 67° NE 10:34:04 10° N
Cosmos 2322 Rocket 4.4 10:30:14 13° NW 10:30:14 13° NW 10:31:58 10° NNW
NOSS 0 Rocket 4.2 10:32:14 64° E 10:32:14 64° E 10:37:50 10° NNE
IDEFIX/ARIANE 42P 4.1 10:27:39 10° N 10:30:18 28° NNW 10:30:18 28° NNW
Cosmos 2278 Rocket 3.8 10:28:32 10° N 10:33:34 32° ENE 10:38:34 10° ESE
Cosmos 2219 Rocket 3.7 10:37:32 26° NNW 10:37:32 26° NNW 10:40:51 10° N
RESURS DK-1 4.4 10:39:59 25° NNE 10:39:59 25° NNE 10:41:45 10° NNE
Meteor 2-17 Rocket 4.5 10:38:24 74° E 10:38:24 74° E 10:44:21 10° N
ATLAS 5 CENTAUR R/B 4.1 10:42:32 28° SSE 10:42:32 28° SSE 10:46:31 10° SE
CZ-2C R/B 4.4 10:47:19 10° NE 10:51:31 25° E 10:53:57 18° SE
ADEOS II 2.8 10:54:38 10° N 10:58:31 42° NNW 10:58:31 42° NNW
Meteor 1-19 Rocket 4.3 11:02:24 70° SSE 11:03:05 82° E 11:09:06 10° N
Cosmos 923 Rocket 4.1 11:03:38 69° ESE 11:03:49 69° ESE 11:09:03 10° NNE
FENGYUN 3A 4.1 11:00:20 10° N 11:04:53 49° NW 11:04:53 49° NW
Cosmos 1092 Rocket 3.9 11:09:38 53° S 11:11:13 83° E 11:17:22 10° N
CZ-2D R/B 3.6 11:08:55 10° NNW 11:12:08 24° NW 11:12:08 24° NW
Envisat 3.6 11:08:29 10° NNE 11:13:27 53° E 11:15:01 38° SSE
UNK 3.8 11:18:32 64° NNW 11:18:32 64° NNW 11:22:28 10° NNW
Cosmos 1805 Rocket 4.0 11:13:43 10° N 11:17:00 51° NNW 11:17:00 51° NNW
Cosmos 2026 Rocket 3.9 11:16:45 50° S 11:18:33 87° W 11:24:56 10° N
Cosmos 1500 Rocket 4.5 11:14:12 10° NNW 11:17:04 38° NNW 11:17:04 38° NNW
SL-16 R/B 2.5 11:22:00 53° WSW 11:22:17 54° W 11:28:22 10° NNW
Cosmos 1733 4.2 11:21:24 10° N 11:23:46 39° N 11:23:46 39° N
YAOGAN 6 3.8 11:23:11 10° NNE 11:26:12 34° E 11:26:18 34° ESE
CZ-4 R/B 3.6 11:23:43 10° NNE 11:28:28 86° WNW 11:29:07 67° SSW
BlueWalker 3 4.3 11:25:39 10° NNW 11:28:44 23° NNE 11:31:49 10° E
Meteor 1-27 Rocket 3.9 11:29:05 51° WSW 11:29:43 54° WNW 11:35:20 10° N
Thor Agena Rocket 4.0 11:26:39 10° NNE 11:31:37 57° ESE 11:34:23 26° S
EO 1 Delta rocket 3.7 11:27:10 10° N 11:31:45 70° WNW 11:32:15 64° WSW
Cosmos 1943 Rocket 2.9 11:26:58 10° NNW 11:32:32 54° ENE 11:38:03 10° SE
Meteor 2-4 Rocket 3.9 11:30:43 26° S 11:33:43 66° E 11:39:09 10° NNE
COSMOS 2428 4.1 11:34:36 22° WNW 11:34:55 22° NW 11:39:19 10° N
H-2A R/B 4.5 11:31:46 10° NE 11:35:18 19° E 11:38:50 10° SE
CZ-2C R/B 4.5 11:40:13 16° WNW 11:40:13 16° WNW 11:41:48 10° NW
Cosmos 1340 Rocket 2.5 11:39:28 80° S 11:39:40 89° ESE 11:43:32 10° N
ALOS 3.2 11:36:51 10° N 11:40:36 32° WNW 11:40:36 32° WNW
NOAA 11 4.2 11:35:33 10° NNE 11:41:01 82° ESE 11:44:06 27° S
Cosmos 2237 Rocket 2.5 11:40:21 42° W 11:41:29 48° WNW 11:46:59 10° N
Sich 1 4.0 11:38:48 10° NNW 11:41:29 32° NW 11:41:29 32° NW
Cosmos 1980 4.1 11:41:44 40° W 11:42:49 44° WNW 11:48:13 10° N
Cosmos 2112 Rocket 3.9 11:41:26 41° SSW 11:43:22 83° WNW 11:48:44 10° NNE
Cosmos 1867 3.7 11:40:14 10° NW 11:45:30 49° WSW 11:50:42 10° S
Cosmos 1805 3.2 11:42:55 10° N 11:46:37 76° E 11:48:23 29° SSE
Cosmos 1328 Rocket 3.6 11:45:30 30° S 11:47:37 77° E 11:52:03 10° N
Aureole 2 4.5 11:43:58 10° NNW 11:48:07 75° WSW 11:48:52 53° S
Meteor 1-11 Rocket 4.3 11:43:44 10° NNW 11:48:36 34° W 11:48:36 34° W
